Walterboro, SC

6:50 AM EST on February 06, 2016 (GMT -0500)
Lowcountry Regional

Weather History for KRBW - January, 2013

Change the Weather History Date:

Wednesday, January 2, 2013

  Actual Average Record
Temperature  
Mean Temperature 56 °F -  
Max Temperature 62 °F 59 °F 66 °F (2011)
Min Temperature 51 °F 36 °F 37 °F (2012)
Degree Days  
Heating Degree Days 8    
Growing Degree Days 6 (Base 50)    
Moisture  
Dew Point 54 °F    
Average Humidity 90    
Maximum Humidity 100    
Minimum Humidity 72    
Precipitation  
Precipitation 0.00 in - - ()
Sea Level Pressure  
Sea Level Pressure 30.02 in    
Wind  
Wind Speed 6 mph (NW)    
Max Wind Speed 9 mph    
Max Gust Speed 16 mph    
Visibility 9 miles    
Events Rain    
Averages and records for this station are not official NWS values.
T = Trace of Precipitation, MM = Missing Value Source: NWS Daily Summary

Daily Weather History Graph

Daily Weather History Graph

Search for Another Location

Airport or City:

Trip Planner

Search our weather history database for the weather conditions in past years. The results will help you decide how hot, cold, wet, or windy it might be!

Date:

Astronomy

Jan. 02, 2013 Rise Set
Actual Time 7:25 AM EST 5:28 PM EST
Civil Twilight 6:58 AM EST 5:55 PM EST
Nautical Twilight 6:27 AM EST 6:26 PM EST
Astronomical Twilight 5:57 AM EST 6:56 PM EST
Moon 10:40 PM EST (1/2) 10:23 AM EST (1/2)
Length of Visible Light 10h 56m
Length of Day
10h 02m
Waning Gibbous, 75% of the Moon is Illuminated
Jan 2
Waning Gibbous
Jan 4
Last Quarter
Jan 11
New
Jan 18
First Quarter
Jan 26
Full

Hourly Weather History & Observations

Time (EST) Temp. Dew Point Humidity Pressure Visibility Wind Dir Wind Speed Gust Speed Precip Events Conditions
12:15 AM 60.8 °F 53.6 °F 77% 29.95 in 10.0 mi SSW 9.2 mph - N/A   Overcast
12:35 AM 60.8 °F 53.6 °F 77% 29.94 in 10.0 mi SSW 8.1 mph - N/A   Overcast
12:55 AM 60.8 °F 53.6 °F 77% 29.93 in 10.0 mi SSW 8.1 mph - N/A   Overcast
1:15 AM 60.8 °F 53.6 °F 77% 29.93 in 10.0 mi SW 8.1 mph - N/A   Overcast
1:35 AM 60.8 °F 53.6 °F 77% 29.94 in 10.0 mi SW 8.1 mph - N/A   Overcast
1:55 AM 60.8 °F 53.6 °F 77% 29.94 in 10.0 mi SW 6.9 mph - N/A   Overcast
2:15 AM 62.6 °F 53.6 °F 72% 29.93 in 10.0 mi SSW 9.2 mph - N/A   Overcast
2:35 AM 62.6 °F 55.4 °F 77% 29.94 in 10.0 mi SW 6.9 mph - N/A   Overcast
2:55 AM 62.6 °F 55.4 °F 77% 29.93 in 10.0 mi SW 4.6 mph - N/A   Overcast
3:15 AM 62.6 °F 55.4 °F 77% 29.93 in 10.0 mi SSW 6.9 mph - N/A   Overcast
3:35 AM 60.8 °F 55.4 °F 82% 29.93 in 10.0 mi SSW 5.8 mph - N/A   Overcast
3:55 AM 60.8 °F 55.4 °F 82% 29.92 in 10.0 mi SSW 4.6 mph - N/A   Overcast
4:15 AM 60.8 °F 55.4 °F 82% 29.93 in 10.0 mi WSW 4.6 mph - N/A   Overcast
4:35 AM 60.8 °F 55.4 °F 82% 29.92 in 10.0 mi SSW 5.8 mph - N/A   Overcast
4:55 AM 60.8 °F 55.4 °F 82% 29.92 in 10.0 mi SSW 3.5 mph - N/A   Overcast
5:15 AM 60.8 °F 55.4 °F 82% 29.91 in 10.0 mi South 5.8 mph - N/A   Mostly Cloudy
5:35 AM 60.8 °F 57.2 °F 88% 29.91 in 10.0 mi SSW 4.6 mph - N/A   Mostly Cloudy
5:55 AM 60.8 °F 57.2 °F 88% 29.91 in 10.0 mi SW 4.6 mph - N/A   Overcast
6:15 AM 60.8 °F 57.2 °F 88% 29.92 in 10.0 mi SSW 5.8 mph - N/A   Overcast
6:35 AM 60.8 °F 57.2 °F 88% 29.93 in 10.0 mi WSW 4.6 mph - N/A   Overcast
6:55 AM 62.6 °F 59.0 °F 88% 29.94 in 10.0 mi SW 5.8 mph - N/A   Overcast
7:15 AM 60.8 °F 59.0 °F 94% 29.94 in 10.0 mi SW 5.8 mph - N/A   Overcast
7:35 AM 60.8 °F 59.0 °F 94% 29.95 in 10.0 mi WSW 4.6 mph - N/A   Overcast
7:55 AM 60.8 °F 59.0 °F 94% 29.96 in 10.0 mi West 5.8 mph - N/A   Overcast
8:15 AM 60.8 °F 60.8 °F 100% 29.98 in 4.0 mi NW 8.1 mph - N/A   Drizzle
8:35 AM 59.0 °F 59.0 °F 100% 29.99 in 5.0 mi NW 5.8 mph 16.1 mph N/A   Drizzle
9:15 AM 59.0 °F 59.0 °F 100% 30.00 in 10.0 mi NNW 5.8 mph - N/A   Overcast
9:35 AM 57.2 °F 57.2 °F 100% 30.01 in 5.0 mi NNW 5.8 mph - N/A   Overcast
9:55 AM 55.4 °F 55.4 °F 100% 30.03 in 7.0 mi NNW 4.6 mph - N/A   Overcast
10:15 AM 55.4 °F 55.4 °F 100% 30.03 in 7.0 mi NNW 5.8 mph - N/A   Drizzle
10:35 AM 55.4 °F 55.4 °F 100% 30.04 in 7.0 mi North 4.6 mph - N/A   Drizzle
10:55 AM 55.4 °F 55.4 °F 100% 30.05 in 10.0 mi NNW 4.6 mph - N/A Rain Light Rain
11:15 AM 55.4 °F 55.4 °F 100% 30.05 in 10.0 mi NNW 6.9 mph - N/A   Drizzle
11:35 AM 55.4 °F 55.4 °F 100% 30.04 in 10.0 mi North 3.5 mph - N/A   Overcast
11:55 AM 55.4 °F 53.6 °F 94% 30.03 in 10.0 mi North 4.6 mph - N/A   Light Drizzle
12:15 PM 55.4 °F 53.6 °F 94% 30.04 in 10.0 mi North 3.5 mph - N/A   Overcast
12:35 PM 55.4 °F 53.6 °F 94% 30.03 in 10.0 mi Calm Calm - N/A   Overcast
12:55 PM 55.4 °F 53.6 °F 94% 30.01 in 10.0 mi NE 6.9 mph - N/A   Overcast
1:35 PM 55.4 °F 53.6 °F 94% 30.01 in 10.0 mi North 4.6 mph - N/A   Overcast
1:55 PM 55.4 °F 53.6 °F 94% 30.01 in 10.0 mi North 5.8 mph - N/A   Overcast
2:15 PM 57.2 °F 51.8 °F 82% 30.01 in 10.0 mi ENE 5.8 mph - N/A   Overcast
2:35 PM 55.4 °F 51.8 °F 88% 30.02 in 10.0 mi North 3.5 mph - N/A   Overcast
2:55 PM 55.4 °F 51.8 °F 88% 30.02 in 10.0 mi North 3.5 mph - N/A   Overcast
3:15 PM 57.2 °F 51.8 °F 82% 30.03 in 10.0 mi Calm Calm - N/A   Overcast
3:35 PM 57.2 °F 51.8 °F 82% 30.04 in 10.0 mi Calm Calm - N/A   Overcast
3:55 PM 55.4 °F 51.8 °F 88% 30.05 in 10.0 mi North 3.5 mph - N/A   Overcast
4:15 PM 55.4 °F 51.8 °F 88% 30.05 in 10.0 mi NNE 3.5 mph - N/A   Overcast
4:35 PM 55.4 °F 51.8 °F 88% 30.04 in 10.0 mi NNE 4.6 mph - N/A   Overcast
4:55 PM 55.4 °F 51.8 °F 88% 30.05 in 10.0 mi Calm Calm - N/A   Overcast
5:15 PM 55.4 °F 51.8 °F 88% 30.06 in 10.0 mi NE 3.5 mph - N/A   Overcast
5:35 PM 55.4 °F 51.8 °F 88% 30.07 in 10.0 mi Calm Calm - N/A   Overcast
5:55 PM 55.4 °F 51.8 °F 88% 30.07 in 10.0 mi Calm Calm - N/A   Overcast
6:15 PM 55.4 °F 51.8 °F 88% 30.08 in 10.0 mi Calm Calm - N/A   Overcast
6:35 PM 55.4 °F 51.8 °F 88% 30.08 in 10.0 mi Calm Calm - N/A   Overcast
6:55 PM 55.4 °F 51.8 °F 88% 30.09 in 10.0 mi Calm Calm - N/A   Overcast
7:15 PM 55.4 °F 51.8 °F 88% 30.09 in 10.0 mi Calm Calm - N/A   Overcast
7:35 PM 53.6 °F 51.8 °F 94% 30.09 in 10.0 mi Calm Calm - N/A   Overcast
7:55 PM 53.6 °F 51.8 °F 94% 30.09 in 10.0 mi Calm Calm - N/A   Overcast
8:15 PM 53.6 °F 51.8 °F 94% 30.10 in 10.0 mi Calm Calm - N/A   Overcast
8:35 PM 53.6 °F 51.8 °F 94% 30.11 in 10.0 mi ENE 3.5 mph - N/A   Overcast
8:55 PM 53.6 °F 53.6 °F 100% 30.11 in 7.0 mi Calm Calm - N/A   Overcast
9:15 PM 53.6 °F 53.6 °F 100% 30.12 in 4.0 mi East 3.5 mph - N/A   Drizzle
9:35 PM 53.6 °F 53.6 °F 100% 30.12 in 3.0 mi East 4.6 mph - N/A   Drizzle
9:55 PM 51.8 °F 51.8 °F 100% 30.14 in 5.0 mi ESE 9.2 mph - N/A   Drizzle
10:15 PM 51.8 °F 51.8 °F 100% 30.14 in 10.0 mi ENE 4.6 mph - N/A   Overcast
10:35 PM 51.8 °F 51.8 °F 100% 30.15 in 10.0 mi East 4.6 mph - N/A   Overcast
10:55 PM 51.8 °F 51.8 °F 100% 30.14 in 10.0 mi ENE 4.6 mph - N/A   Overcast
11:15 PM 51.8 °F 51.8 °F 100% 30.14 in 10.0 mi ENE 3.5 mph - N/A   Overcast
11:35 PM 51.8 °F 51.8 °F 100% 30.14 in 10.0 mi ENE 3.5 mph - N/A   Overcast
11:55 PM 51.8 °F 51.8 °F 100% 30.13 in 10.0 mi ENE 4.6 mph - N/A   Overcast